Regional Weather Roundup
Issued by NWS Bismarck, ND

Home | Current Version | Previous Version | Text Only | Print | Product List | Glossary On
Versions: 1 2 3 4 5 6 7 8 9 10 11 12 13 14 15 16 17 18 19 20 21 22 23 24 25 26 27 28 29 30 31 32 33 34 35 36 37 38 39 40 41 42 43 44 45 46 47 48 49 50
000
ASUS43 KBIS 231720
RWRBIS

NWR BROADCAST TEXT
NATIONAL WEATHER SERVICE BISMARCK ND
1200 PM CDT WED APR 23 2014

NOTE: "FAIR" INDICATES FEW OR NO CLOUDS BELOW 12,000 FEET WITH NO
SIGNIFICANT WEATHER AND/OR OBSTRUCTIONS TO VISIBILITY.


CITY           SKY/WX    TMP DP  RH WIND       PRES   REMARKS
WILLISTON      CLOUDY    58  38  47 SE18G30   29.44S
MINOT          LGT RAIN  49  41  74 SE28G40   29.57S
MINOT AFB      CLOUDY    48  46  93 SE25G38   29.58R
BISMARCK       PTSUNNY   57  38  48 SE33G41   29.56S
DICKINSON      CLOUDY    55  36  48 S20G28    29.44R
GARRISON         N/A     55  40  56 SE26G39   29.52F
HETTINGER ARPT CLOUDY    53  39  59 SE9       29.48R
JAMESTOWN      CLOUDY    50  43  77 SE36G44   29.71F
CARRINGTON     PTSUNNY   48  46  93 SE35G45   29.70S
CROSBY         CLOUDY    52  39  62 SE29G35   29.48S
HARVEY         FAIR      50  43  76 SE26G44   29.64F
HAZEN          FAIR      55  36  47 SE25G37   29.51F
LINTON         FAIR      55  39  54 SE30G44   29.53F
MANDAN         FAIR      57  37  47 SE28G40   29.55R
OAKES          CLOUDY    48  41  76 E29G36    29.72F
RUGBY          PTSUNNY   45  43  93 E29       29.67F
STANLEY        CLOUDY    50  43  76 SE30G38   29.52S
TIOGA          PTSUNNY   50  39  66 SE32G39   29.51S
WATFORD CITY   PTSUNNY   57  37  47 SE17G28   29.43S
$$

CITY           SKY/WX    TMP DP  RH WIND       PRES   REMARKS
GRAND FORKS    LGT RAIN  44  38  79 SE18      29.88R
GRAND FORKS AF LGT RAIN  44  42  95 SE13      29.87S
DEVILS LAKE    CLOUDY    43  37  81 SE20      29.76F
FARGO          LGT RAIN  44  40  85 SE21G32   29.86S
CANDO          MIX PCPN  41  41 100 SE18      29.78S
CAVALIER       CLOUDY    48  32  53 S21       29.88R
GRAFTON        CLOUDY    45  39  81 S16G28    29.89R HAZE
GWINNER        CLOUDY    45  43  93 SE30G38   29.77F
LANGDON        MIX PCPN  41  39  93 SE21G31   29.83R
ROLLA          LGT RAIN  41  41 100 SE20G28   29.77F
WALHALLA         N/A     48  32  53 SE20G25   29.86S
$$

CITY           SKY/WX    TMP DP  RH WIND       PRES   REMARKS
ABERDEEN       PTSUNNY   48  38  68 SE25G43   29.67F
MOBRIDGE       CLOUDY    50  41  71 SE22G33   29.53S
BUFFALO          N/A     53  42  66 W28       29.47R
RAPID CITY     CLOUDY    62  44  51 N8        29.52R
GLASGOW        CLOUDY    46  37  71 NW22G30   29.51R
SIDNEY         CLOUDY    48  43  81 W21G29    29.45S
WOLF POINT     CLOUDY    48  39  71 W23G31    29.50R
GLENDIVE       CLOUDY    46  37  71 W30G37    29.52R
MILES CITY     LGT RAIN  48  35  60 NW21G31   29.59R
BAKER          CLOUDY    47  39  74 NW28G37   29.54R
$$

CITY           SKY/WX    TMP DP  RH WIND       PRES   REMARKS
BILLINGS       CLOUDY    47  24  40 W25G31    29.70R
GREAT FALLS    MOSUNNY   46  22  38 W32G40    29.65R
REGINA         LGT RAIN  45  43  93 E24G33    29.52F
ESTEVAN        LGT RAIN  46  43  87 SE25G32   29.52S
$$




USA.gov is the U.S. government's official web portal to all federal, state and local government web resources and services.